| time (UTC) | temp F | wind direction | speed MPH | gust MPH | rain 1hr in | rain 24hr in | rain mn in | humidity % | barometer mb |
| 20260510153135 | 81 | 22 | 3.0 | 3.0 | 0.00 | 0.00 | 0.00 | 46 | 1029.3 |
| 20260510152631 | 79 | 333 | 4.0 | 7.0 | 0.00 | 0.00 | 0.00 | 45 | 1029.3 |
| 20260510152127 | 77 | 0 | 3.0 | 12.0 | 0.00 | 0.00 | 0.00 | 43 | 1029.4 |
| 20260510151624 | 79 | 288 | 3.0 | 5.0 | 0.00 | 0.00 | 0.00 | 50 | 1029.2 |
| 20260510151122 | 79 | 106 | 0.0 | 2.0 | 0.00 | 0.00 | 0.00 | 49 | 1029.2 |
| 20260510150622 | 78 | 194 | 0.0 | 3.0 | 0.00 | 0.00 | 0.00 | 48 | 1029.3 |
| 20260510150118 | 77 | 55 | 3.0 | 7.0 | 0.00 | 0.00 | 0.00 | 53 | 1029.1 |
| 20260510145614 | 77 | 53 | 0.0 | 6.0 | 0.00 | 0.00 | 0.00 | 56 | 1029.2 |
| 20260510145111 | 77 | 54 | 6.0 | 6.0 | 0.00 | 0.00 | 0.00 | 53 | 1029.1 |
| 20260510144607 | 76 | 82 | 0.0 | 5.0 | 0.00 | 0.00 | 0.00 | 58 | 1029.2 |
| 20260510144103 | 77 | 257 | 2.0 | 5.0 | 0.00 | 0.00 | 0.00 | 58 | 1029.2 |
| 20260510143559 | 77 | 270 | 3.0 | 7.0 | 0.00 | 0.00 | 0.00 | 57 | 1029.1 |
| 20260510143056 | 77 | 294 | 0.0 | 3.0 | 0.00 | 0.00 | 0.00 | 58 | 1029.0 |
| 20260510142552 | 77 | 290 | 2.0 | 4.0 | 0.00 | 0.00 | 0.00 | 60 | 1029.1 |
| 20260510142049 | 75 | 297 | 2.0 | 5.0 | 0.00 | 0.00 | 0.00 | 62 | 1029.1 |
| 20260510141546 | 77 | 260 | 2.0 | 2.0 | 0.00 | 0.00 | 0.00 | 60 | 1028.9 |
| 20260510141044 | 75 | 246 | 2.0 | 5.0 | 0.00 | 0.00 | 0.00 | 64 | 1029.1 |
| 20260510140540 | 74 | 48 | 2.0 | 4.0 | 0.00 | 0.00 | 0.00 | 66 | 1029.2 |
| 20260510140039 | 74 | 319 | 2.0 | 4.0 | 0.00 | 0.00 | 0.00 | 69 | 1029.1 |
| 20260510135535 | 74 | 62 | 3.0 | 4.0 | 0.00 | 0.00 | 0.00 | 67 | 1029.0 |
| 20260510135032 | 73 | 315 | 0.0 | 4.0 | 0.00 | 0.00 | 0.00 | 70 | 1029.1 |
| 20260510134529 | 72 | 276 | 3.0 | 5.0 | 0.00 | 0.00 | 0.00 | 72 | 1029.2 |
| 20260510134026 | 73 | 278 | 6.0 | 6.0 | 0.00 | 0.00 | 0.00 | 71 | 1029.3 |
| 20260510133522 | 74 | 90 | 0.0 | 4.0 | 0.00 | 0.00 | 0.00 | 71 | 1029.2 |
| 20260510133018 | 72 | 345 | 0.0 | 7.0 | 0.00 | 0.00 | 0.00 | 75 | 1029.2 |
| 20260510132515 | 71 | 9 | 3.0 | 5.0 | 0.00 | 0.00 | 0.00 | 75 | 1029.1 |
| 20260510132012 | 71 | 57 | 2.0 | 5.0 | 0.00 | 0.00 | 0.00 | 77 | 1029.1 |
| 20260510131509 | 70 | 326 | 2.0 | 5.0 | 0.00 | 0.00 | 0.00 | 80 | 1028.8 |
| 20260510131006 | 70 | 358 | 3.0 | 4.0 | 0.00 | 0.00 | 0.00 | 80 | 1029.1 |
| 20260510130502 | 69 | 279 | 2.0 | 7.0 | 0.00 | 0.00 | 0.00 | 83 | 1028.8 |
| 20260510130000 | 70 | 277 | 1.0 | 3.0 | 0.00 | 0.00 | 0.00 | 84 | 1028.9 |
| 20260510125456 | 69 | 294 | 1.0 | 3.0 | 0.00 | 0.00 | 0.00 | 87 | 1028.8 |
| 20260510124953 | 70 | 240 | 1.0 | 2.0 | 0.00 | 0.00 | 0.00 | 85 | 1028.8 |
| 20260510124449 | 68 | 294 | 1.0 | 4.0 | 0.00 | 0.00 | 0.00 | 88 | 1028.6 |
| 20260510123946 | 68 | 352 | 0.0 | 3.0 | 0.00 | 0.00 | 0.00 | 90 | 1028.4 |
| 20260510123441 | 68 | 278 | 0.0 | 2.0 | 0.00 | 0.00 | 0.00 | 89 | 1028.4 |
| 20260510122938 | 68 | 246 | 0.0 | 1.0 | 0.00 | 0.00 | 0.00 | 91 | 1028.5 |
| 20260510122433 | 67 | 281 | 3.0 | 3.0 | 0.00 | 0.00 | 0.00 | 93 | 1028.7 |
| 20260510121929 | 65 | 291 | 1.0 | 3.0 | 0.00 | 0.00 | 0.00 | 96 | 1028.6 |
| 20260510121427 | 65 | 261 | 0.0 | 3.0 | 0.00 | 0.00 | 0.00 | 97 | 1028.5 |
| 20260510120925 | 66 | 270 | 0.0 | 2.0 | 0.00 | 0.00 | 0.00 | 95 | 1028.1 |
| 20260510120422 | 64 | 254 | 0.0 | 0.0 | 0.00 | 0.00 | 0.00 | 99 | 1028.3 |
| 20260510115917 | 64 | 209 | 0.0 | 1.0 | 0.00 | 0.00 | 0.00 | 99 | 1028.3 |
| 20260510115415 | 63 | 209 | 0.0 | 0.0 | 0.00 | 0.00 | 0.00 | 99 | 1028.2 |
| 20260510114910 | 62 | 254 | 0.0 | 0.0 | 0.00 | 0.00 | 0.00 | 99 | 1028.2 |
| 20260510114408 | 60 | 254 | 0.0 | 0.0 | 0.00 | 0.00 | 0.00 | 99 | 1028.3 |
| 20260510113903 | 60 | 254 | 0.0 | 0.0 | 0.00 | 0.00 | 0.00 | 99 | 1028.3 |
| 20260510113359 | 60 | 254 | 0.0 | 0.0 | 0.00 | 0.00 | 0.00 | 99 | 1028.0 |
| 20260510112856 | 60 | 254 | 0.0 | 0.0 | 0.00 | 0.00 | 0.00 | 99 | 1028.0 |
| 20260510112353 | 59 | 254 | 0.0 | 1.0 | 0.00 | 0.00 | 0.00 | 99 | 1028.0 |
| 20260510111849 | 59 | 261 | 0.0 | 0.0 | 0.00 | 0.00 | 0.00 | 99 | 1027.9 |
| 20260510111345 | 60 | 270 | 0.0 | 0.0 | 0.00 | 0.00 | 0.00 | 99 | 1027.7 |
| 20260510110840 | 59 | 278 | 0.0 | 2.0 | 0.00 | 0.00 | 0.00 | 99 | 1027.8 |
| 20260510110338 | 59 | 279 | 0.0 | 2.0 | 0.00 | 0.00 | 0.00 | 99 | 1027.6 |
| 20260510105834 | 59 | 203 | 0.0 | 0.0 | 0.00 | 0.00 | 0.00 | 99 | 1027.5 |
| 20260510105333 | 59 | 203 | 0.0 | 0.0 | 0.00 | 0.00 | 0.00 | 99 | 1027.4 |
| 20260510104830 | 59 | 203 | 0.0 | 0.0 | 0.00 | 0.00 | 0.00 | 99 | 1027.4 |
| 20260510104327 | 59 | 203 | 0.0 | 0.0 | 0.00 | 0.00 | 0.00 | 99 | 1027.5 |
| 20260510103823 | 59 | 203 | 0.0 | 0.0 | 0.00 | 0.00 | 0.00 | 99 | 1027.2 |
| 20260510103320 | 59 | 254 | 0.0 | 1.0 | 0.00 | 0.00 | 0.00 | 99 | 1026.9 |
| 20260510102816 | 58 | 254 | 0.0 | 0.0 | 0.00 | 0.00 | 0.00 | 99 | 1027.0 |
| 20260510102312 | 59 | 254 | 0.0 | 0.0 | 0.00 | 0.00 | 0.00 | 99 | 1026.6 |
| 20260510101809 | 59 | 254 | 0.0 | 0.0 | 0.00 | 0.00 | 0.00 | 99 | 1026.7 |
| 20260510101307 | 59 | 254 | 0.0 | 0.0 | 0.00 | 0.00 | 0.00 | 99 | 1026.7 |
| 20260510100803 | 59 | 254 | 0.0 | 0.0 | 0.00 | 0.00 | 0.00 | 99 | 1026.5 |
| 20260510100301 | 59 | 254 | 0.0 | 0.0 | 0.00 | 0.00 | 0.00 | 99 | 1026.9 |
| 20260510095756 | 59 | 261 | 0.0 | 0.0 | 0.00 | 0.00 | 0.00 | 99 | 1026.6 |
| 20260510095252 | 59 | 246 | 0.0 | 0.0 | 0.00 | 0.00 | 0.00 | 99 | 1026.3 |
| 20260510094751 | 59 | 246 | 0.0 | 0.0 | 0.00 | 0.00 | 0.00 | 99 | 1026.2 |
| 20260510094246 | 59 | 246 | 0.0 | 0.0 | 0.00 | 0.00 | 0.00 | 99 | 1026.2 |
| 20260510093742 | 59 | 246 | 0.0 | 0.0 | 0.00 | 0.00 | 0.00 | 99 | 1026.3 |
| 20260510093240 | 59 | 246 | 0.0 | 0.0 | 0.00 | 0.00 | 0.00 | 99 | 1026.2 |
| 20260510092736 | 59 | 270 | 0.0 | 1.0 | 0.00 | 0.00 | 0.00 | 99 | 1026.3 |
| 20260510092231 | 59 | 246 | 0.0 | 0.0 | 0.00 | 0.00 | 0.00 | 99 | 1026.1 |
| 20260510091727 | 59 | 246 | 0.0 | 0.0 | 0.00 | 0.00 | 0.00 | 99 | 1026.3 |
| 20260510091224 | 60 | 261 | 0.0 | 1.0 | 0.00 | 0.00 | 0.00 | 99 | 1026.1 |
| 20260510090721 | 59 | 270 | 0.0 | 0.0 | 0.00 | 0.00 | 0.00 | 99 | 1026.2 |
| 20260510090218 | 60 | 270 | 0.0 | 0.0 | 0.00 | 0.00 | 0.00 | 99 | 1026.1 |
| 20260510085713 | 60 | 270 | 0.0 | 0.0 | 0.00 | 0.00 | 0.00 | 99 | 1026.0 |
| 20260510085208 | 60 | 270 | 0.0 | 1.0 | 0.00 | 0.00 | 0.00 | 99 | 1025.9 |
| 20260510084704 | 60 | 206 | 1.0 | 1.0 | 0.00 | 0.00 | 0.00 | 99 | 1025.7 |
| 20260510084201 | 60 | 254 | 0.0 | 1.0 | 0.00 | 0.00 | 0.00 | 99 | 1026.0 |
| 20260510083658 | 60 | 278 | 0.0 | 0.0 | 0.00 | 0.00 | 0.00 | 99 | 1025.6 |
| 20260510083155 | 60 | 254 | 0.0 | 0.0 | 0.00 | 0.00 | 0.00 | 99 | 1025.8 |
| 20260510082651 | 60 | 270 | 0.0 | 1.0 | 0.00 | 0.00 | 0.00 | 99 | 1025.8 |
| 20260510082146 | 60 | 246 | 0.0 | 0.0 | 0.00 | 0.00 | 0.00 | 99 | 1025.6 |
| 20260510081642 | 60 | 246 | 0.0 | 0.0 | 0.00 | 0.00 | 0.00 | 99 | 1025.7 |
| 20260510081138 | 60 | 246 | 0.0 | 0.0 | 0.00 | 0.00 | 0.00 | 99 | 1025.5 |
| 20260510080637 | 60 | 254 | 0.0 | 0.0 | 0.00 | 0.00 | 0.00 | 99 | 1025.7 |
| 20260510080134 | 60 | 246 | 0.0 | 1.0 | 0.00 | 0.00 | 0.00 | 99 | 1025.9 |
| 20260510075631 | 60 | 300 | 0.0 | 1.0 | 0.00 | 0.00 | 0.00 | 99 | 1025.9 |
| 20260510075128 | 60 | 240 | 0.0 | 1.0 | 0.00 | 0.00 | 0.00 | 99 | 1025.5 |
| 20260510074625 | 60 | 255 | 1.0 | 1.0 | 0.00 | 0.00 | 0.00 | 99 | 1025.6 |
| 20260510074121 | 60 | 240 | 0.0 | 0.0 | 0.00 | 0.00 | 0.00 | 99 | 1025.4 |
| 20260510073617 | 60 | 270 | 0.0 | 0.0 | 0.00 | 0.00 | 0.00 | 99 | 1025.4 |
| 20260510073114 | 61 | 270 | 0.0 | 1.0 | 0.00 | 0.00 | 0.00 | 99 | 1025.5 |
| 20260510072611 | 60 | 255 | 0.0 | 0.0 | 0.00 | 0.00 | 0.00 | 99 | 1025.4 |
| 20260510072107 | 61 | 279 | 0.0 | 1.0 | 0.00 | 0.00 | 0.00 | 99 | 1025.5 |
| 20260510071603 | 61 | 246 | 0.0 | 0.0 | 0.00 | 0.00 | 0.00 | 99 | 1025.3 |
| 20260510071101 | 61 | 209 | 0.0 | 2.0 | 0.00 | 0.00 | 0.00 | 99 | 1025.2 |
| 20260510070557 | 60 | 187 | 0.0 | 0.0 | 0.00 | 0.00 | 0.00 | 99 | 1025.4 |
| 20260510070055 | 61 | 168 | 0.0 | 2.0 | 0.00 | 0.00 | 0.00 | 99 | 1025.3 |
| 20260510065551 | 60 | 279 | 0.0 | 1.0 | 0.00 | 0.00 | 0.00 | 99 | 1025.4 |
| 20260510065047 | 61 | 203 | 0.0 | 1.0 | 0.00 | 0.00 | 0.00 | 99 | 1025.4 |
| 20260510064543 | 61 | 254 | 0.0 | 0.0 | 0.00 | 0.00 | 0.00 | 99 | 1025.3 |
| 20260510064040 | 61 | 261 | 0.0 | 0.0 | 0.00 | 0.00 | 0.00 | 99 | 1025.4 |
| 20260510063537 | 61 | 254 | 0.0 | 1.0 | 0.00 | 0.00 | 0.00 | 99 | 1025.3 |
| 20260510063034 | 61 | 261 | 0.0 | 0.0 | 0.00 | 0.00 | 0.00 | 99 | 1025.0 |
| 20260510062530 | 61 | 261 | 0.0 | 0.0 | 0.00 | 0.00 | 0.00 | 99 | 1025.1 |
| 20260510062025 | 61 | 261 | 0.0 | 0.0 | 0.00 | 0.00 | 0.00 | 99 | 1025.0 |
| 20260510061522 | 61 | 261 | 0.0 | 0.0 | 0.00 | 0.00 | 0.00 | 99 | 1025.2 |
| 20260510061019 | 62 | 261 | 0.0 | 0.0 | 0.00 | 0.00 | 0.00 | 99 | 1025.4 |
| 20260510060515 | 62 | 246 | 0.0 | 0.0 | 0.00 | 0.00 | 0.00 | 99 | 1025.4 |
| 20260510060012 | 62 | 246 | 0.0 | 0.0 | 0.00 | 0.00 | 0.00 | 99 | 1025.6 |
| 20260510055507 | 62 | 203 | 0.0 | 0.0 | 0.00 | 0.00 | 0.00 | 99 | 1025.6 |
| 20260510055006 | 62 | 203 | 0.0 | 1.0 | 0.00 | 0.00 | 0.00 | 99 | 1025.4 |
| 20260510054501 | 62 | 279 | 0.0 | 1.0 | 0.00 | 0.00 | 0.00 | 99 | 1025.5 |
| 20260510053956 | 62 | 279 | 0.0 | 2.0 | 0.00 | 0.00 | 0.00 | 99 | 1025.7 |
| 20260510053451 | 62 | 229 | 3.0 | 3.0 | 0.00 | 0.00 | 0.00 | 99 | 1025.6 |
| 20260510052948 | 62 | 270 | 0.0 | 0.0 | 0.00 | 0.00 | 0.00 | 99 | 1025.8 |
| 20260510052444 | 62 | 270 | 0.0 | 1.0 | 0.00 | 0.00 | 0.00 | 99 | 1025.7 |
| 20260510051940 | 62 | 278 | 0.0 | 0.0 | 0.00 | 0.00 | 0.00 | 99 | 1025.8 |
| 20260510051437 | 62 | 198 | 0.0 | 0.0 | 0.00 | 0.00 | 0.00 | 99 | 1026.1 |
| 20260510050933 | 63 | 324 | 3.0 | 3.0 | 0.00 | 0.00 | 0.00 | 99 | 1025.9 |
| 20260510050430 | 63 | 194 | 0.0 | 1.0 | 0.00 | 0.00 | 0.00 | 99 | 1025.8 |
| 20260510045927 | 63 | 206 | 0.0 | 1.0 | 0.00 | 0.00 | 0.00 | 99 | 1025.8 |
| 20260510045425 | 63 | 340 | 0.0 | 1.0 | 0.00 | 0.00 | 0.00 | 99 | 1025.8 |
| 20260510044921 | 63 | 261 | 0.0 | 2.0 | 0.00 | 0.00 | 0.00 | 99 | 1025.9 |
| 20260510044418 | 63 | 340 | 0.0 | 2.0 | 0.00 | 0.00 | 0.00 | 99 | 1026.0 |
| 20260510043915 | 62 | 187 | 0.0 | 1.0 | 0.00 | 0.00 | 0.00 | 99 | 1026.0 |
| 20260510043411 | 62 | 270 | 0.0 | 2.0 | 0.00 | 0.00 | 0.00 | 99 | 1026.0 |
| 20260510042909 | 62 | 240 | 0.0 | 1.0 | 0.00 | 0.00 | 0.00 | 99 | 1025.9 |
| 20260510042405 | 62 | 203 | 0.0 | 2.0 | 0.00 | 0.00 | 0.00 | 99 | 1025.9 |
| 20260510041900 | 62 | 249 | 0.0 | 3.0 | 0.00 | 0.00 | 0.00 | 99 | 1025.8 |
| 20260510041358 | 62 | 203 | 0.0 | 1.0 | 0.00 | 0.00 | 0.00 | 99 | 1026.0 |
| 20260510040855 | 62 | 279 | 0.0 | 0.0 | 0.00 | 0.00 | 0.00 | 99 | 1025.9 |
| 20260510040352 | 63 | 262 | 0.0 | 1.0 | 0.00 | 0.00 | 0.00 | 99 | 1025.9 |
| 20260510035847 | 62 | 279 | 0.0 | 0.0 | 0.00 | 0.00 | 0.00 | 99 | 1026.0 |
| 20260510035343 | 62 | 246 | 0.0 | 1.0 | 0.00 | 0.00 | 0.00 | 99 | 1025.9 |
| 20260510034839 | 63 | 203 | 0.0 | 1.0 | 0.00 | 0.00 | 0.00 | 99 | 1025.9 |
| 20260510034337 | 63 | 240 | 0.0 | 2.0 | 0.00 | 0.00 | 0.00 | 99 | 1025.7 |
| 20260510033834 | 63 | 270 | 0.0 | 1.0 | 0.00 | 0.00 | 0.00 | 99 | 1025.5 |
| 20260510033330 | 63 | 270 | 0.0 | 1.0 | 0.00 | 0.00 | 0.00 | 99 | 1025.7 |
| 20260510032827 | 63 | 270 | 0.0 | 1.0 | 0.00 | 0.00 | 0.00 | 99 | 1025.7 |
| 20260510032324 | 63 | 180 | 0.0 | 1.0 | 0.00 | 0.00 | 0.00 | 98 | 1025.6 |
| 20260510031819 | 63 | 255 | 0.0 | 0.0 | 0.00 | 0.00 | 0.00 | 98 | 1025.4 |
| 20260510031315 | 63 | 255 | 0.0 | 0.0 | 0.00 | 0.00 | 0.00 | 99 | 1025.7 |
| 20260510030809 | 63 | 270 | 1.0 | 2.0 | 0.00 | 0.00 | 0.00 | 99 | 1025.6 |
| 20260510030306 | 63 | 270 | 0.0 | 1.0 | 0.00 | 0.00 | 0.00 | 98 | 1025.5 |
| 20260510025803 | 63 | 249 | 0.0 | 0.0 | 0.00 | 0.00 | 0.00 | 98 | 1025.5 |
| 20260510025301 | 63 | 249 | 0.0 | 1.0 | 0.00 | 0.00 | 0.00 | 98 | 1025.6 |
| 20260510024757 | 63 | 270 | 0.0 | 0.0 | 0.00 | 0.00 | 0.00 | 98 | 1025.5 |
| 20260510024254 | 64 | 195 | 0.0 | 2.0 | 0.00 | 0.00 | 0.00 | 98 | 1025.2 |
| 20260510023749 | 63 | 249 | 0.0 | 1.0 | 0.00 | 0.00 | 0.00 | 97 | 1025.6 |
| 20260510023242 | 64 | 106 | 0.0 | 1.0 | 0.00 | 0.00 | 0.00 | 97 | 1025.4 |
| 20260510022738 | 64 | 270 | 0.0 | 0.0 | 0.00 | 0.00 | 0.00 | 97 | 1025.5 |
| 20260510022238 | 64 | 262 | 0.0 | 2.0 | 0.00 | 0.00 | 0.00 | 96 | 1025.5 |
| 20260510021737 | 64 | 270 | 0.0 | 2.0 | 0.00 | 0.00 | 0.00 | 96 | 1025.3 |
| 20260510021236 | 64 | 249 | 0.0 | 0.0 | 0.00 | 0.00 | 0.00 | 96 | 1025.5 |
| 20260510020731 | 64 | 270 | 1.0 | 1.0 | 0.00 | 0.00 | 0.00 | 96 | 1025.3 |
| 20260510020226 | 64 | 255 | 0.0 | 2.0 | 0.00 | 0.00 | 0.00 | 96 | 1025.4 |
| 20260510015722 | 64 | 195 | 0.0 | 1.0 | 0.00 | 0.00 | 0.00 | 96 | 1025.1 |
| 20260510015218 | 64 | 180 | 0.0 | 0.0 | 0.00 | 0.00 | 0.00 | 96 | 1025.4 |
| 20260510014714 | 64 | 254 | 0.0 | 0.0 | 0.00 | 0.00 | 0.00 | 96 | 1025.2 |
| 20260510014211 | 64 | 254 | 0.0 | 0.0 | 0.00 | 0.00 | 0.00 | 96 | 1025.0 |
| 20260510013711 | 64 | 254 | 0.0 | 0.0 | 0.00 | 0.00 | 0.00 | 95 | 1024.8 |
| 20260510013208 | 64 | 194 | 0.0 | 1.0 | 0.00 | 0.00 | 0.00 | 94 | 1024.7 |
| 20260510012702 | 64 | 254 | 0.0 | 0.0 | 0.00 | 0.00 | 0.00 | 94 | 1024.8 |
| 20260510012157 | 65 | 249 | 1.0 | 2.0 | 0.00 | 0.00 | 0.00 | 93 | 1024.9 |
| 20260510011652 | 65 | 254 | 0.0 | 1.0 | 0.00 | 0.00 | 0.00 | 93 | 1024.5 |
| 20260510011148 | 65 | 255 | 0.0 | 1.0 | 0.00 | 0.00 | 0.00 | 92 | 1024.5 |
| 20260510010644 | 66 | 195 | 0.0 | 1.0 | 0.00 | 0.00 | 0.00 | 91 | 1024.6 |
| 20260510010142 | 66 | 194 | 0.0 | 0.0 | 0.00 | 0.00 | 0.00 | 90 | 1024.3 |
| 20260510005638 | 66 | 203 | 0.0 | 0.0 | 0.00 | 0.00 | 0.00 | 90 | 1024.2 |
| 20260510005135 | 67 | 195 | 0.0 | 1.0 | 0.00 | 0.00 | 0.00 | 89 | 1024.2 |
| 20260510004633 | 67 | 209 | 0.0 | 1.0 | 0.00 | 0.00 | 0.00 | 88 | 1024.5 |
| 20260510004131 | 68 | 261 | 0.0 | 0.0 | 0.00 | 0.00 | 0.00 | 87 | 1024.4 |
| 20260510003627 | 68 | 261 | 0.0 | 0.0 | 0.00 | 0.00 | 0.00 | 87 | 1024.3 |
| 20260510003123 | 68 | 261 | 0.0 | 0.0 | 0.00 | 0.00 | 0.00 | 86 | 1024.3 |
| 20260510002618 | 68 | 45 | 0.0 | 2.0 | 0.00 | 0.00 | 0.00 | 85 | 1024.3 |
| 20260510002115 | 68 | 180 | 0.0 | 2.0 | 0.00 | 0.00 | 0.00 | 85 | 1024.1 |
| 20260510001612 | 69 | 215 | 0.0 | 0.0 | 0.00 | 0.00 | 0.00 | 85 | 1024.3 |
| 20260510001111 | 69 | 286 | 0.0 | 1.0 | 0.00 | 0.00 | 0.00 | 85 | 1024.3 |
| 20260510000611 | 69 | 278 | 0.0 | 1.0 | 0.00 | 0.00 | 0.00 | 84 | 1024.2 |
| 20260510000108 | 69 | 270 | 0.0 | 1.0 | 0.00 | 0.00 | 0.00 | 84 | 1024.1 |
| 20260509235604 | 70 | 270 | 0.0 | 0.0 | 0.00 | 0.00 | 0.00 | 84 | 1023.9 |
| 20260509235101 | 70 | 264 | 2.0 | 2.0 | 0.00 | 0.00 | 0.00 | 83 | 1023.9 |
| 20260509234557 | 70 | 249 | 0.0 | 2.0 | 0.00 | 0.00 | 0.00 | 82 | 1024.0 |
| 20260509234055 | 71 | 270 | 1.0 | 1.0 | 0.00 | 0.00 | 0.00 | 81 | 1024.0 |
| 20260509233553 | 71 | 341 | 0.0 | 2.0 | 0.00 | 0.00 | 0.00 | 81 | 1023.7 |
| 20260509233050 | 71 | 162 | 1.0 | 6.0 | 0.00 | 0.00 | 0.00 | 80 | 1023.9 |
| 20260509232546 | 71 | 233 | 3.0 | 3.0 | 0.00 | 0.00 | 0.00 | 79 | 1023.8 |
| 20260509232043 | 71 | 240 | 0.0 | 3.0 | 0.00 | 0.00 | 0.00 | 81 | 1023.7 |
| 20260509231539 | 71 | 209 | 0.0 | 3.0 | 0.00 | 0.00 | 0.00 | 79 | 1023.6 |
| 20260509231037 | 72 | 232 | 2.0 | 3.0 | 0.00 | 0.00 | 0.00 | 79 | 1023.6 |
| 20260509230534 | 73 | 180 | 0.0 | 2.0 | 0.00 | 0.00 | 0.00 | 78 | 1023.7 |
| 20260509230031 | 73 | 255 | 0.0 | 2.0 | 0.00 | 0.00 | 0.00 | 77 | 1023.5 |
| 20260509225526 | 73 | 225 | 3.0 | 3.0 | 0.00 | 0.00 | 0.00 | 76 | 1023.6 |
| 20260509225022 | 73 | 265 | 3.0 | 4.0 | 0.00 | 0.00 | 0.00 | 77 | 1023.3 |
| 20260509224518 | 73 | 249 | 0.0 | 5.0 | 0.00 | 0.00 | 0.00 | 76 | 1023.4 |
| 20260509224015 | 74 | 254 | 1.0 | 3.0 | 0.00 | 0.00 | 0.00 | 74 | 1023.5 |
| 20260509223512 | 74 | 278 | 0.0 | 3.0 | 0.00 | 0.00 | 0.00 | 76 | 1023.5 |
| 20260509223010 | 75 | 262 | 1.0 | 3.0 | 0.00 | 0.00 | 0.00 | 72 | 1023.6 |
| 20260509222505 | 74 | 324 | 2.0 | 6.0 | 0.00 | 0.00 | 0.00 | 74 | 1023.6 |
| 20260509222001 | 74 | 109 | 3.0 | 4.0 | 0.00 | 0.00 | 0.00 | 73 | 1023.6 |
| 20260509221457 | 74 | 246 | 4.0 | 4.0 | 0.00 | 0.00 | 0.00 | 73 | 1023.5 |
| 20260509220953 | 74 | 251 | 6.0 | 7.0 | 0.00 | 0.00 | 0.00 | 72 | 1023.5 |
| 20260509220449 | 74 | 300 | 1.0 | 4.0 | 0.00 | 0.00 | 0.00 | 73 | 1023.5 |
| 20260509215945 | 73 | 171 | 4.0 | 5.0 | 0.00 | 0.00 | 0.00 | 74 | 1023.6 |
| 20260509215441 | 76 | 330 | 2.0 | 2.0 | 0.00 | 0.00 | 0.00 | 71 | 1023.5 |
| 20260509214939 | 75 | 11 | 2.0 | 4.0 | 0.00 | 0.00 | 0.00 | 72 | 1023.6 |
| 20260509214436 | 75 | 311 | 0.0 | 5.0 | 0.00 | 0.00 | 0.00 | 72 | 1023.5 |
| 20260509213932 | 74 | 96 | 1.0 | 3.0 | 0.00 | 0.00 | 0.00 | 73 | 1023.4 |
| 20260509213428 | 74 | 208 | 3.0 | 4.0 | 0.00 | 0.00 | 0.00 | 74 | 1023.5 |
| 20260509212926 | 74 | 216 | 3.0 | 5.0 | 0.00 | 0.00 | 0.00 | 72 | 1023.4 |
| 20260509212423 | 74 | 29 | 2.0 | 3.0 | 0.00 | 0.00 | 0.00 | 72 | 1023.2 |
| 20260509211919 | 73 | 49 | 2.0 | 4.0 | 0.00 | 0.00 | 0.00 | 74 | 1023.3 |
| 20260509211415 | 73 | 212 | 2.0 | 5.0 | 0.00 | 0.00 | 0.00 | 74 | 1023.0 |
| 20260509210911 | 74 | 250 | 2.0 | 6.0 | 0.00 | 0.00 | 0.00 | 73 | 1023.2 |
| 20260509210409 | 75 | 199 | 6.0 | 7.0 | 0.00 | 0.00 | 0.00 | 70 | 1023.0 |
| 20260509205904 | 75 | 209 | 3.0 | 6.0 | 0.00 | 0.00 | 0.00 | 71 | 1023.1 |
| 20260509205404 | 74 | 183 | 3.0 | 8.0 | 0.00 | 0.00 | 0.00 | 73 | 1023.4 |
| 20260509204900 | 75 | 174 | 1.0 | 5.0 | 0.00 | 0.00 | 0.00 | 72 | 1023.4 |
| 20260509204357 | 74 | 199 | 4.0 | 6.0 | 0.00 | 0.00 | 0.00 | 72 | 1023.4 |
| 20260509203853 | 75 | 345 | 0.0 | 3.0 | 0.00 | 0.00 | 0.00 | 72 | 1023.4 |
| 20260509203349 | 75 | 317 | 4.0 | 6.0 | 0.00 | 0.00 | 0.00 | 71 | 1023.3 |
| 20260509202847 | 74 | 278 | 3.0 | 5.0 | 0.00 | 0.00 | 0.00 | 71 | 1023.4 |
| 20260509202342 | 74 | 270 | 1.0 | 6.0 | 0.00 | 0.00 | 0.00 | 72 | 1023.5 |
| 20260509201837 | 73 | 6 | 0.0 | 6.0 | 0.00 | 0.00 | 0.00 | 72 | 1023.4 |
| 20260509201333 | 73 | 119 | 3.0 | 4.0 | 0.00 | 0.00 | 0.00 | 74 | 1023.5 |
| 20260509200830 | 74 | 245 | 2.0 | 3.0 | 0.00 | 0.00 | 0.00 | 72 | 1023.1 |
| 20260509200326 | 73 | 6 | 0.0 | 6.0 | 0.00 | 0.00 | 0.00 | 72 | 1023.4 |
| 20260509195822 | 74 | 206 | 2.0 | 3.0 | 0.00 | 0.00 | 0.00 | 72 | 1023.5 |
| 20260509195322 | 73 | 204 | 2.0 | 5.0 | 0.00 | 0.00 | 0.00 | 73 | 1023.5 |
| 20260509194822 | 73 | 252 | 3.0 | 4.0 | 0.00 | 0.00 | 0.00 | 71 | 1023.8 |
| 20260509194319 | 73 | 254 | 5.0 | 5.0 | 0.00 | 0.00 | 0.00 | 72 | 1023.8 |
| 20260509193815 | 73 | 195 | 2.0 | 8.0 | 0.00 | 0.00 | 0.00 | 72 | 1023.5 |
| 20260509193315 | 74 | 333 | 4.0 | 5.0 | 0.00 | 0.00 | 0.00 | 70 | 1023.7 |
| 20260509192811 | 75 | 5 | 0.0 | 3.0 | 0.00 | 0.00 | 0.00 | 70 | 1024.0 |
| 20260509192308 | 72 | 315 | 3.0 | 6.0 | 0.00 | 0.00 | 0.00 | 71 | 1024.0 |
| 20260509191802 | 72 | 323 | 2.0 | 4.0 | 0.00 | 0.00 | 0.00 | 70 | 1024.0 |
| 20260509191259 | 73 | 195 | 2.0 | 7.0 | 0.00 | 0.00 | 0.00 | 69 | 1024.1 |
| 20260509190754 | 74 | 172 | 2.0 | 4.0 | 0.00 | 0.00 | 0.00 | 68 | 1023.9 |
| 20260509190252 | 75 | 303 | 2.0 | 6.0 | 0.00 | 0.00 | 0.00 | 65 | 1023.8 |
| 20260509185749 | 76 | 270 | 2.0 | 3.0 | 0.00 | 0.00 | 0.00 | 65 | 1024.0 |
| 20260509185246 | 75 | 255 | 3.0 | 5.0 | 0.00 | 0.00 | 0.00 | 66 | 1024.1 |
| 20260509184743 | 74 | 274 | 5.0 | 6.0 | 0.00 | 0.00 | 0.00 | 68 | 1024.2 |
| 20260509184241 | 74 | 306 | 1.0 | 3.0 | 0.00 | 0.00 | 0.00 | 67 | 1024.1 |
| 20260509183737 | 73 | 280 | 5.0 | 10.0 | 0.00 | 0.00 | 0.00 | 66 | 1023.9 |
| 20260509183232 | 74 | 325 | 6.0 | 10.0 | 0.00 | 0.00 | 0.00 | 64 | 1024.1 |
| 20260509182727 | 76 | 312 | 0.0 | 9.0 | 0.00 | 0.00 | 0.00 | 62 | 1024.2 |
| 20260509182226 | 76 | 233 | 4.0 | 5.0 | 0.00 | 0.00 | 0.00 | 62 | 1024.0 |
| 20260509181722 | 74 | 313 | 8.0 | 8.0 | 0.00 | 0.00 | 0.00 | 63 | 1024.2 |
| 20260509181220 | 75 | 120 | 3.0 | 7.0 | 0.00 | 0.00 | 0.00 | 61 | 1024.3 |
| 20260509180717 | 74 | 258 | 3.0 | 11.0 | 0.00 | 0.00 | 0.00 | 62 | 1024.5 |
| 20260509180213 | 75 | 6 | 3.0 | 5.0 | 0.00 | 0.00 | 0.00 | 59 | 1024.5 |
| 20260509175710 | 75 | 324 | 2.0 | 6.0 | 0.00 | 0.00 | 0.00 | 60 | 1024.4 |
| 20260509175206 | 75 | 186 | 3.0 | 4.0 | 0.00 | 0.00 | 0.00 | 62 | 1024.7 |
| 20260509174702 | 74 | 197 | 4.0 | 9.0 | 0.00 | 0.00 | 0.00 | 61 | 1024.8 |
| 20260509174157 | 74 | 164 | 8.0 | 9.0 | 0.00 | 0.00 | 0.00 | 61 | 1024.8 |
| 20260509173654 | 75 | 204 | 2.0 | 3.0 | 0.00 | 0.00 | 0.00 | 62 | 1024.9 |
| 20260509173150 | 75 | 245 | 2.0 | 7.0 | 0.00 | 0.00 | 0.00 | 63 | 1024.7 |
| 20260509172646 | 75 | 185 | 3.0 | 5.0 | 0.00 | 0.00 | 0.00 | 63 | 1024.9 |
| 20260509172142 | 74 | 270 | 2.0 | 6.0 | 0.00 | 0.00 | 0.00 | 65 | 1024.9 |
| 20260509171638 | 72 | 289 | 5.0 | 11.0 | 0.00 | 0.00 | 0.00 | 65 | 1025.2 |
| 20260509171134 | 73 | 255 | 3.0 | 9.0 | 0.00 | 0.00 | 0.00 | 66 | 1025.2 |
| 20260509170631 | 73 | 260 | 2.0 | 5.0 | 0.00 | 0.00 | 0.00 | 67 | 1025.1 |
| 20260509170127 | 73 | 169 | 3.0 | 7.0 | 0.00 | 0.00 | 0.00 | 66 | 1025.2 |
| 20260509165626 | 74 | 175 | 0.0 | 3.0 | 0.00 | 0.00 | 0.00 | 64 | 1025.4 |
| 20260509165122 | 73 | 14 | 2.0 | 6.0 | 0.00 | 0.00 | 0.00 | 63 | 1025.5 |
| 20260509164617 | 73 | 309 | 5.0 | 5.0 | 0.00 | 0.00 | 0.00 | 66 | 1025.5 |
| 20260509164113 | 72 | 157 | 1.0 | 5.0 | 0.00 | 0.00 | 0.00 | 65 | 1025.3 |
| 20260509163612 | 72 | 252 | 3.0 | 11.0 | 0.00 | 0.00 | 0.00 | 64 | 1025.4 |
| 20260509163107 | 75 | 180 | 3.0 | 5.0 | 0.00 | 0.00 | 0.00 | 64 | 1025.4 |
| 20260509162604 | 73 | 104 | 5.0 | 7.0 | 0.00 | 0.00 | 0.00 | 63 | 1025.3 |
| 20260509162100 | 73 | 199 | 6.0 | 7.0 | 0.00 | 0.00 | 0.00 | 66 | 1025.3 |
| 20260509161557 | 73 | 202 | 3.0 | 7.0 | 0.00 | 0.00 | 0.00 | 66 | 1025.4 |
| 20260509161056 | 73 | 3 | 0.0 | 5.0 | 0.00 | 0.00 | 0.00 | 65 | 1025.6 |
| 20260509160553 | 73 | 69 | 0.0 | 9.0 | 0.00 | 0.00 | 0.00 | 66 | 1025.5 |
| 20260509160048 | 74 | 241 | 3.0 | 4.0 | 0.00 | 0.00 | 0.00 | 65 | 1025.3 |
| 20260509155545 | 73 | 195 | 3.0 | 5.0 | 0.00 | 0.00 | 0.00 | 68 | 1025.4 |
| 20260509155041 | 71 | 213 | 3.0 | 9.0 | 0.00 | 0.00 | 0.00 | 68 | 1025.2 |
| 20260509154537 | 73 | 24 | 2.0 | 5.0 | 0.00 | 0.00 | 0.00 | 67 | 1025.7 |
| 20260509154035 | 71 | 241 | 10.0 | 10.0 | 0.00 | 0.00 | 0.00 | 68 | 1025.5 |
| 20260509153532 | 70 | 286 | 3.0 | 9.0 | 0.00 | 0.00 | 0.00 | 70 | 1025.6 |